[Iaude] MPEC V128: 2023 VT3 [a=0.75,e=0.36,i=8.2,H=26.3]

mpec at marsden.cfa.harvard.edu mpec at marsden.cfa.harvard.edu
Thu Nov 9 08:37:26 EST 2023


M.P.E.C. 2023-V128                             Issued 2023 November 9, 13:35 UT

     The Minor Planet Electronic Circulars contain information on unusual
         minor planets, routine data on comets and natural satellites,
         and occasional editorial announcements.  They are published
    on behalf of Division F of the International Astronomical Union by the
          Minor Planet Center, Smithsonian Astrophysical Observatory,
                          Cambridge, MA 02138, U.S.A.
			  
             Prepared using the Tamkin Foundation Computer Network

                              MPC at CFA.HARVARD.EDU
            URL https://www.minorplanetcenter.net/    ISSN 1523-6714

                                    2023 VT3                                    


Observations:
     K23V03T 1C2023 11 04.48822 05 22 46.57 +14 49 38.2          19.6 GVEV128G96
     K23V03T 1C2023 11 04.49333 05 22 40.77 +14 50 15.7          19.9 GVEV128G96
     K23V03T KC2023 11 08.98985 03 24 23.69 +25 14 50.3                VEV128K88
     K23V03T KC2023 11 08.99359 03 24 15.34 +25 15 19.3                VEV128K88
     K23V03T* C2023 11 09.01741503 23 21.98 +25 18 16.8          19.3 RoEV128K88
     K23V03T  C2023 11 09.01955403 23 17.14 +25 18 33.1          19.0 RoEV128K88
     K23V03T KC2023 11 09.03258003 22 49.13 +25 20 24.9          18.9 GVEV128L01
     K23V03T KC2023 11 09.03357003 22 46.90 +25 20 32.2          18.7 GVEV128L01
     K23V03T KC2023 11 09.03456103 22 44.70 +25 20 39.7          19.0 GVEV128L01
     K23V03T KC2023 11 09.03555103 22 42.49 +25 20 47.1          19.1 GVEV128L01
     K23V03T KC2023 11 09.03592003 22 40.47 +25 20 32.6          19.2 RoEV128K88
     K23V03T KC2023 11 09.03654003 22 40.25 +25 20 54.5          18.9 GVEV128L01
     K23V03T KC2023 11 09.03765203 22 37.74 +25 21 02.3          18.9 GVEV128L01
     K23V03T KC2023 11 09.03805703 22 35.76 +25 20 48.5          19.0 RoEV128K88
     K23V03T 1C2023 11 09.04882 03 22 13.93 +25 21 58.8          19.3 VXEV128033
     K23V03T 1C2023 11 09.04910 03 22 13.27 +25 22 01.1          19.4 VXEV128033
     K23V03T 1C2023 11 09.04938 03 22 12.69 +25 22 03.0          19.7 VXEV128033
     K23V03T KC2023 11 09.09382703 20 31.14 +25 27 28.3          19.2 RoEV128K88
     K23V03T KC2023 11 09.09767903 20 22.64 +25 27 55.5          19.4 RoEV128K88
     K23V03T KC2023 11 09.20931103 16 41.27 +25 43 06.2          19.0 GXEV128858
     K23V03T KC2023 11 09.21517903 16 27.81 +25 43 51.4          19.2 GXEV128858
     K23V03T KC2023 11 09.22085403 16 14.77 +25 44 34.6          19.2 GXEV128858
     K23V03T KB2023 11 09.23823 03 15 31.43 +25 46 31.9          19.0 GVEV128734
     K23V03T KB2023 11 09.24580 03 15 14.00 +25 47 28.1          19.1 GVEV128734
     K23V03T KB2023 11 09.25327 03 14 56.70 +25 48 22.5          18.9 GVEV128734
     K23V03T KC2023 11 09.35586303 10 57.14 +26 00 08.4          19.3 GVEV128H21
     K23V03T KC2023 11 09.35749803 10 53.39 +26 00 19.5          19.2 GVEV128H21
     K23V03T KC2023 11 09.35919903 10 49.47 +26 00 30.7          20.0 GVEV128H21
     K23V03T mC2023 11 09.43319203 08 02.576+26 09 35.71         18.81GVEV128I52
     K23V03T mC2023 11 09.43336203 08 02.173+26 09 37.01         18.92GVEV128I52
     K23V03T mC2023 11 09.43354003 08 01.727+26 09 37.69         19.61GVEV128I52
     K23V03T mC2023 11 09.43654803 07 54.772+26 09 56.48         18.77GVEV128I52

Observer details:
033 Karl Schwarzschild Observatory, Tautenburg.  Observers S. Melnikov, C.
    Hogner, F. Ludwig, M. Hartmann, B. Stecklum.  Measurer B. Stecklum.
    1.34-m f/3 Schmidt + CCD.
734 Farpoint Observatory, Eskridge.  Observer .
858 Tebbutt Observatory, Edgewood.  Observer F. B. Zoltowski.  0.51-m f/8.1
    Schmidt-Cassegrain + CCD.
G96 Mt. Lemmon Survey.  Observer J. B. Fazekas.  Measurers B. Gray, D. Rankin,
    F. C. Shelly.  1.5-m reflector + 10K CCD.
H21 Astronomical Research Observatory, Westfield.  Observer R. Holmes.
    Measurers T. Linder, R. Holmes, L. Horn.  0.76-m f/3.0 astrograph + CCD.
I52 Steward Observatory, Mt. Lemmon Station.  Observer H. Groeller.  Measurers
    E. C. Beshore, D. Fay, J. B. Fazekas, D. C. Fuls, A. R. Gibbs, A. D.
    Grauer, H. Groeller, J. K. Hogan, R. A. Kowalski, S. M. Larson, G. J.
    Leonard, D. Rankin, R. L. Seaman, F. C. Shelly, K. W. Wierzchos.  1.0-m
    prime focus + CCD.
K88 GINOP-KHK, Piszkesteto.  Observer K. Sarneczky.  0.60-m Schmidt + CCD.
L01 Visnjan Observatory, Tican.  Observer K. Korlevic.  1.0-m f/2.9 reflector
    + CCD.

Orbital elements:
2023 VT3                                                 Earth MOID = 0.0273 AU
Epoch 2023 Sept. 13.0 TT = JDT 2460200.5                Veres                   
M 104.80113              (2000.0)            P               Q                  
n   1.50858259     Peri.  175.77415     -0.75667194     +0.64590336             
a   0.7529336      Node    45.00708     -0.60396437     -0.63124905             
e   0.3572655      Incl.    8.23337     -0.25034898     -0.42934075             
P   0.65           H   26.39          G   0.15           U   7                  
Residuals in seconds of arc
231104 G96  0.2+  0.5-    231109 L01  0.6-  0.3+    231109 734  0.3-  0.2+
231104 G96  0.2-  0.5+    231109 L01  0.8-  0.0     231109 734  0.2+  0.5+
231108 K88  0.3-  0.7-    231109 K88  0.1+  0.2-    231109 734  0.4-  0.2+
231108 K88  0.1+  0.2+    231109 033  0.1-  0.0     231109 H21  0.1+  0.2-
231109 K88  0.2+  0.2-    231109 033  0.6-  0.2+    231109 H21  0.4+  0.1+
231109 K88  0.5-  0.2+    231109 033  0.1+  0.1+    231109 H21  0.3+  0.1+
231109 L01  0.9-  0.1-    231109 K88  0.5-  0.4-    231109 I52  0.2-  0.1+
231109 L01  1.0-  0.1-    231109 K88  0.4+  0.3-    231109 I52  0.3-  0.3+
231109 L01  0.6-  0.1+    231109 858  0.2+  0.2+    231109 I52  0.8-  0.2-
231109 L01  0.4-  0.2+    231109 858  0.1+  0.4+    231109 I52  0.6-  0.6-
231109 K88  0.8-  0.5-    231109 858  0.2-  0.2+

Ephemeris:
2023 VT3                 a,e,i = 0.75, 0.36, 8                   q = 0.4839
Date    TT    R. A. (2000) Decl.     Delta      r    Elong.  Phase     V
2023 10 10    07 20 01.6 -01 27 31   0.1345  0.9955    84.7    87.6    25.1
...
2023 10 25    06 51 19.2 +03 06 43   0.07673 1.0188   106.3    69.5    23.3
...
2023 11 02    05 58 16.7 +10 30 03   0.04656 1.0219   128.2    49.7    21.6
...
2023 11 08    03 57 54.8 +23 00 57   0.03033 1.0200   162.7    16.8    19.7
2023 11 09    03 24 06.9 +25 18 00   0.02909 1.0193   168.8    10.8    19.4
2023 11 10    02 46 48.5 +27 10 31   0.02848 1.0185   169.4    10.3    19.4
...
2023 11 16    23 29 50.8 +26 08 28   0.03750 1.0117   126.1    52.2    21.2
...
2023 11 24    21 55 24.7 +19 04 48   0.06512 0.9968    96.4    79.8    23.2
...
2023 12 09    21 06 58.0 +13 50 59   0.1216  0.9515    70.5   102.5    25.5

M. P. C. Staff               (C) Copyright 2023 MPC           M.P.E.C. 2023-V128




More information about the Iaude mailing list